EW0765 Weather Reports


Display with metric or nautical units.
time (UTC)temp
F
wind
direction
speed
MPH
gust
MPH
rain 1hr
in
rain 24hr
in
rain mn
in
humidity
%
barometer
mb
20260906031557 62 67 0.0 0.0 0.00 0.18 0.18 89 1015.2
20260906030101 63 68 0.0 0.0 0.00 0.18 0.18 89 1015.0
20260906024558 63 67 0.0 0.0 0.00 0.18 0.18 88 1014.9
20260906023052 64 67 0.0 0.0 0.00 0.18 0.18 88 1014.8
20260906021549 64 67 0.0 0.0 0.00 0.18 0.18 86 1014.6
20260906020047 64 67 0.0 0.0 0.00 0.18 0.18 85 1014.6
20260906014615 65 67 0.0 0.0 0.00 0.18 0.18 83 1014.5
20260906013048 65 67 0.0 0.0 0.00 0.18 0.18 81 1014.4
20260906011542 66 67 0.0 0.0 0.00 0.18 0.18 81 1014.5
20260906010044 66 67 0.0 0.0 0.00 0.18 0.18 78 1014.3
20260906004537 67 67 0.0 0.0 0.00 0.18 0.18 77 1014.0
20260906003034 68 67 0.0 0.0 0.00 0.18 0.18 77 1014.1
20260906001534 68 67 0.0 0.0 0.00 0.18 0.18 76 1014.0
20260906000037 69 67 0.0 0.0 0.00 0.18 0.18 75 1013.9
20260905234535 70 68 0.0 0.0 0.00 0.18 0.18 73 1013.6
20260905233032 71 67 0.0 0.0 0.00 0.18 0.18 72 1013.7
20260905231531 72 77 0.0 3.0 0.00 0.18 0.18 66 1013.6
20260905230030 72 64 0.0 6.0 0.00 0.18 0.18 65 1013.5
20260905224530 72 94 0.0 7.0 0.00 0.18 0.18 68 1013.5
20260905223029 73 246 0.0 6.0 0.00 0.18 0.18 70 1013.4
20260905221528 73 37 1.0 9.0 0.00 0.18 0.18 70 1013.3
20260905220028 73 81 2.0 12.0 0.00 0.18 0.18 69 1013.2
20260905214530 74 32 1.0 9.0 0.00 0.18 0.18 71 1012.9
20260905213026 74 69 2.0 9.0 0.00 0.18 0.18 71 1012.9
20260905211534 73 250 0.0 8.0 0.00 0.18 0.18 75 1012.8
20260905210024 73 42 0.0 5.0 0.00 0.18 0.18 75 1012.8
20260905204528 73 355 1.0 9.0 0.00 0.18 0.18 74 1012.9
20260905203022 74 77 0.0 8.0 0.00 0.18 0.18 75 1013.0
20260905201520 75 109 0.0 6.0 0.00 0.18 0.18 76 1013.0
20260905200021 76 51 3.0 7.0 0.00 0.18 0.18 76 1013.1
20260905194520 76 85 0.0 7.0 0.00 0.18 0.18 76 1013.0
20260905193018 77 59 0.0 6.0 0.00 0.18 0.18 81 1012.9
20260905191516 77 13 0.0 4.0 0.00 0.18 0.18 81 1012.9
20260905190014 76 43 0.0 1.0 0.00 0.19 0.18 84 1012.9
20260905184514 76 38 0.0 5.0 0.00 0.19 0.18 84 1013.1
20260905183012 76 73 0.0 5.0 0.00 0.19 0.18 86 1013.2
20260905181511 76 5 0.0 5.0 0.00 0.19 0.18 87 1013.1
20260905180014 75 302 0.0 2.0 0.00 0.19 0.18 89 1013.2
20260905174508 75 24 0.0 2.0 0.00 0.19 0.18 90 1013.2
20260905173006 74 103 0.0 0.0 0.00 0.19 0.18 92 1013.2
20260905171505 74 99 0.0 0.0 0.00 0.19 0.18 93 1013.3
20260905170004 74 98 0.0 0.0 0.00 0.22 0.18 94 1013.4
20260905164504 74 98 0.0 3.0 0.00 0.22 0.18 93 1013.4
20260905163004 74 58 0.0 1.0 0.01 0.22 0.18 94 1013.5
20260905161502 74 95 0.0 0.0 0.18 0.22 0.18 95 1013.6
20260905160001 74 95 0.0 0.0 0.18 0.24 0.18 95 1013.7
20260905154618 73 96 0.0 0.0 0.18 0.24 0.18 95 1013.7
20260905153059 73 96 0.0 0.0 0.17 0.23 0.17 94 1013.6
20260905151603 73 78 0.0 0.0 0.00 0.06 0.00 94 1013.4
20260905150056 73 78 0.0 2.0 0.00 0.10 0.00 94 1013.3
20260905144555 72 263 0.0 0.0 0.00 0.10 0.00 95 1013.2
20260905143053 72 262 0.0 0.0 0.00 0.10 0.00 96 1013.2
20260905141556 72 262 0.0 0.0 0.00 0.10 0.00 96 1013.0
20260905140051 72 262 0.0 0.0 0.00 0.16 0.00 97 1013.1
20260905134552 72 261 0.0 0.0 0.00 0.16 0.00 97 1013.2
20260905133049 71 262 0.0 0.0 0.00 0.16 0.00 97 1013.1
20260905131551 71 262 0.0 0.0 0.00 0.16 0.00 97 1013.4
20260905130046 70 262 0.0 0.0 0.00 0.16 0.00 97 1013.3
20260905124545 70 262 0.0 1.0 0.00 0.16 0.00 97 1013.0
20260905123043 70 261 0.0 0.0 0.00 0.16 0.00 97 1013.2
20260905121543 70 261 0.0 0.0 0.00 0.16 0.00 97 1013.2
20260905120045 69 261 0.0 0.0 0.00 0.16 0.00 97 1012.8
20260905114543 69 261 0.0 0.0 0.00 0.16 0.00 97 1012.9
20260905113041 69 261 0.0 0.0 0.00 0.16 0.00 97 1012.9
20260905111545 69 261 0.0 0.0 0.00 0.16 0.00 97 1013.0
20260905110040 69 261 0.0 0.0 0.00 0.16 0.00 96 1013.2
20260905104547 69 261 0.0 0.0 0.00 0.16 0.00 96 1013.2
20260905103040 69 261 0.0 0.0 0.00 0.16 0.00 96 1013.7
20260905101540 68 261 0.0 0.0 0.00 0.16 0.00 96 1013.8
20260905100039 68 261 0.0 0.0 0.00 0.16 0.00 96 1013.9
20260905094538 68 261 0.0 0.0 0.00 0.16 0.00 96 1013.6
20260905093037 68 261 0.0 0.0 0.00 0.16 0.00 96 1013.0
20260905091544 68 260 0.0 0.0 0.00 0.16 0.00 96 1012.7
20260905090036 68 261 0.0 0.0 0.00 0.16 0.00 96 1012.6
20260905084544 68 261 0.0 0.0 0.00 0.16 0.00 96 1012.6
20260905083034 68 261 0.0 0.0 0.00 0.16 0.00 96 1012.4
20260905081534 68 261 0.0 0.0 0.00 0.16 0.00 96 1011.8
20260905080040 68 260 0.0 0.0 0.00 0.16 0.00 96 1012.1
20260905074532 68 260 0.0 0.0 0.00 0.16 0.00 96 1012.4
20260905073035 68 261 0.0 0.0 0.00 0.16 0.00 96 1012.2
20260905071531 69 261 0.0 0.0 0.00 0.16 0.00 96 1012.5
20260905070058 69 261 0.0 0.0 0.00 0.16 0.00 96 1012.2
20260905064526 69 261 0.0 0.0 0.00 0.16 0.00 96 1012.4
20260905063025 69 260 0.0 0.0 0.00 0.16 0.00 95 1012.5
20260905061522 70 261 0.0 0.0 0.00 0.16 0.00 96 1012.8
20260905060019 70 260 0.0 0.0 0.00 0.16 0.00 96 1013.2
20260905054539 70 261 0.0 0.0 0.00 0.16 0.00 96 1013.3
20260905053016 70 260 0.0 0.0 0.00 0.16 0.00 96 1013.5
20260905051533 70 261 0.0 0.0 0.00 0.16 0.00 95 1013.6
20260905050013 70 260 0.0 0.0 0.00 0.16 0.00 95 1013.7
20260905044518 70 261 0.0 0.0 0.00 0.16 0.00 95 1013.8
20260905043012 70 261 0.0 0.0 0.00 0.16 0.00 96 1013.8
20260905041510 70 261 0.0 0.0 0.00 0.16 0.00 95 1013.7
20260905040008 70 261 0.0 0.0 0.00 0.17 0.16 95 1013.9
20260905034508 70 260 0.0 0.0 0.00 0.17 0.16 95 1013.8
20260905033014 71 261 0.0 0.0 0.00 0.17 0.16 95 1013.8